Weather History for Mobridge, SD

Change the Weather History Date:

Friday, August 2, 2013

  Actual Average Record
Temperature  
Mean Temperature 67 °F 73 °F  
Max Temperature 75 °F 87 °F 109 °F (1938)
Min Temperature 59 °F 60 °F 43 °F (1927)
Degree Days  
Heating Degree Days 0 0  
Month to date heating degree days 0 0  
Since 1 June heating degree days 79 87  
Since 1 July heating degree days 11 12  
Cooling Degree Days 2 9  
Month to date cooling degree days 5 18  
Year to date cooling degree days 346 382  
Since 1 June cooling degree days 331 366  
Growing Degree Days 16 (Base 50)    
Moisture  
Dew Point 54 °F    
Average Humidity 68    
Maximum Humidity 87    
Minimum Humidity 49    
Precipitation  
Precipitation 0.05 in 0.07 in 1.78 in (1990)
Month to date precipitation 0.05 0.14  
Year to date precipitation 11.61 12.02  
Sea Level Pressure  
Sea Level Pressure 29.98 in    
Wind  
Wind Speed 6 mph (East)    
Max Wind Speed 16 mph    
Max Gust Speed 20 mph    
Visibility 10 miles    
Events Rain    
T = Trace of Precipitation, MM = Missing Value Source: NWS Daily Summary

Daily Weather History Graph

Daily Weather History Graph

Search for Another Location

Airport:

Trip Planner

Search our weather history database for the weather conditions in past years. The results will help you decide how hot, cold, wet, or windy it might be!

Date:

Astronomy

Aug. 02, 2013 Rise Set
Actual Time 6:26 AM CDT 9:08 PM CDT
Civil Twilight 5:52 AM CDT 9:41 PM CDT
Nautical Twilight 5:09 AM CDT 10:24 PM CDT
Astronomical Twilight 4:19 AM CDT 11:14 PM CDT
Moon 2:47 AM CDT (8/2) 6:09 PM CDT (8/2)
Length of Visible Light 15h 49m
Length of Day
14h 41m
Waning Crescent, 15% of the Moon is Illuminated
Aug 2
Waning Crescent
Aug 6
New
Aug 14
First Quarter
Aug 20
Full
Aug 28
Last Quarter

Hourly Weather History & Observations

Time (CDT) Temp. Dew Point Humidity Pressure Visibility Wind Dir Wind Speed Gust Speed Precip Events Conditions
12:52 AM 66.0 °F 53.1 °F 63% 29.90 in 10.0 mi ENE 12.7 mph - N/A   Clear
1:52 AM 63.0 °F 53.1 °F 70% 29.88 in 10.0 mi NE 13.8 mph - N/A   Clear
2:52 AM 61.0 °F 54.0 °F 78% 29.88 in 10.0 mi ENE 15.0 mph - N/A   Clear
3:52 AM 60.1 °F 55.0 °F 83% 29.92 in - ENE 11.5 mph - 0.01 in Rain Light Rain
4:52 AM 60.1 °F 54.0 °F 80% 29.95 in - ENE 6.9 mph - 0.00 in   Scattered Clouds
5:52 AM 60.1 °F 55.9 °F 86% 29.97 in - Calm Calm - 0.00 in Rain Light Rain
6:52 AM 59.0 °F 55.0 °F 87% 29.95 in - ENE 4.6 mph - 0.00 in   Partly Cloudy
7:52 AM 59.0 °F 55.0 °F 87% 29.92 in 10.0 mi East 9.2 mph - N/A   Scattered Clouds
8:52 AM 62.1 °F 54.0 °F 75% 29.96 in 10.0 mi NE 5.8 mph - N/A   Scattered Clouds
9:52 AM 64.0 °F 54.0 °F 70% 29.97 in 10.0 mi Calm Calm - N/A   Clear
10:52 AM 63.0 °F 55.0 °F 75% 30.01 in 10.0 mi SE 3.5 mph - 0.00 in Rain Light Rain
11:52 AM 62.1 °F 57.9 °F 86% 30.06 in 10.0 mi Calm Calm - 0.03 in Rain Light Rain
12:52 PM 64.0 °F 57.0 °F 78% 30.01 in 10.0 mi SSE 5.8 mph - 0.01 in   Clear
1:52 PM 66.0 °F 57.0 °F 73% 30.01 in 10.0 mi Calm Calm - N/A   Partly Cloudy
2:52 PM 71.1 °F 55.0 °F 57% 29.99 in 10.0 mi Variable 5.8 mph - N/A   Clear
3:52 PM 71.1 °F 55.0 °F 57% 29.99 in 10.0 mi South 5.8 mph - N/A   Mostly Cloudy
4:52 PM 72.0 °F 53.1 °F 51% 30.00 in 10.0 mi East 4.6 mph - N/A   Mostly Cloudy
5:52 PM 72.0 °F 52.0 °F 49% 30.01 in 10.0 mi East 4.6 mph - N/A   Overcast
6:52 PM 73.9 °F 53.1 °F 48% 30.01 in 10.0 mi SE 3.5 mph - N/A   Clear
7:52 PM 72.0 °F 54.0 °F 53% 30.01 in 10.0 mi SSE 3.5 mph - N/A   Clear
8:52 PM 66.9 °F 55.0 °F 66% 30.02 in 10.0 mi East 6.9 mph - N/A   Partly Cloudy
9:52 PM 64.0 °F 54.0 °F 70% 30.04 in 10.0 mi East 8.1 mph - N/A   Clear
10:52 PM 63.0 °F 52.0 °F 67% 30.04 in 10.0 mi ESE 4.6 mph - N/A   Clear
11:52 PM 61.0 °F 53.1 °F 75% 30.06 in 10.0 mi East 8.1 mph - N/A   Clear